STARLINK-33886 (63681 NORAD) Tracking and Keplerian Element Data

This shows tracking and keplerian element data for the satellite.

Feedback or suggestion? Click here.




ElementValue
Catalog63681
NameSTARLINK-33886
Epoch Orbit3664
Epoch Day353.70860714
Epoch Year2025
RAAN122.1038
Inclination42.9998
Eccentricity0.0001778
Argument of Perigee277.6047
Mean Anonmoly82.4602
Mean Motion15.27594435
Decay Rate0.00011391
L11 63681U 25085T 25353.70860714 .00011391 00000+0 42262-3 0 9998
L22 63681 42.9998 122.1038 0001778 277.6047 82.4602 15.27594435 36646



Live tracking and technical data element details for STARLINK-33886 (NORAD 63681). STARLINK-33886 can be tracked NOW for your location showing map with azimuth and elevation plus other details from your city location.







IsCatalogInMostPopularTable: catalog: 63681, numindb: 7
Update: records affected: 1



GetName: 63681 STARLINK-33886

Hit Count: updated at: Tue, 21 Apr 2026 20:30:33 GMT